Regional Weather Roundup
Issued by NWS

Home | Current Version | Previous Version | Text Only | Print | Product List | Glossary Off
Versions: 1 2 3 4 5 6 7 8 9 10 11 12 13 14 15 16 17 18 19 20 21 22 23 24 25 26 27 28 29 30 31 32 33 34 35 36 37 38 39 40 41 42 43 44 45 46 47 48 49 50

000
ASUS45 KABQ 222201
RWRNM
NEW MEXICO REGIONAL WEATHER ROUNDUP
NATIONAL WEATHER SERVICE ALBUQUERQUE NM
400 PM MDT MON MAY 22 2017

NOTE: "FAIR" MEANS FEW OR NO CLOUDS BELOW 12,000 FEET AGL WITH NO
       SIGNIFICANT WEATHER OR OBSTRUCTIONS TO VISION.

      THIS PRODUCT IS RELEASED AS TWO VERSIONS.  ONE VERSION NEAR
      THE TOP OF THE HOUR CONTAINING PRELIMINARY DATA FROM ALBUQUERQUE
      AND OTHER STATIONS.  A FINAL VERSION WITH ADDITIONAL DATA IS
      ISSUED ABOUT 10 MINUTES AFTER THE HOUR.

NMZ501-503-504-510>518-222300-
NORTHWEST PLATEAU/NORTHCENTRAL MOUNTAINS

CITY           SKY/WX    TMP DP  RH WIND       PRES   REMARKS
FARMINGTON     FAIR      74  36  25 W17G36    30.07F
LOS ALAMOS     FAIR      70  21  16 NW9G24    30.12F
SANTA FE       PTSUNNY   76  24  14 W15G32    30.05F
TAOS           CLOUDY    63  27  25 N23G38    30.12S
ANGEL FIRE     PTSUNNY   58  28  31 W15G24    30.16F

$$
NMZ402-403-502-505>509-222300-
WESTCENTRAL MOUNTAINS/SOUTHWEST MOUNTAINS

CITY           SKY/WX    TMP DP  RH WIND       PRES   REMARKS
GALLUP         FAIR      73  22  14 NW18G24   30.17F
GRANTS         FAIR      74  14  10 W14G30    30.14F
SILVER CITY    FAIR      86  18   8 W20G32    30.04F

$$
NMZ407-409-411-412-222300-
SOUTHERN DESERTS

CITY           SKY/WX    TMP DP  RH WIND       PRES   REMARKS
DEMING         FAIR      92  12   5 W21G32    29.96F
LAS CRUCES     FAIR      92  17   6 W24G30    29.96F
HOLLOMAN AFB   SUNNY     86  32  14 W7        29.98F
ALAMOGORDO     FAIR      86  30  13 NW13      29.97S
T OR C         FAIR      82  23  11 VRB5      30.02F

$$
NMZ519>523-222300-
CENTRAL VALLEYS/CENTRAL HIGHLANDS

CITY           SKY/WX    TMP DP  RH WIND       PRES   REMARKS
ALBUQUERQUE    FAIR      80  14   8 NW22G28   30.04F
DOUBLE EAGLE     N/A     75  21  13 W20G29    30.08F
MORIARTY ARPT  FAIR      77  17  10 W24G32    30.08F
CLINES CORNERS FAIR      71  21  15 NW24G44   30.12F
BELEN          FAIR      82  16   8 NW17G26   30.02F
SOCORRO        NOT AVBL

$$
NMZ524>526-539-540-222300-
SOUTHCENTRAL MOUNTAINS

CITY           SKY/WX    TMP DP  RH WIND       PRES   REMARKS
RUIDOSO        NOT AVBL

$$
NMZ527>531-222300-
NORTHEAST HIGHLANDS/NORTHEAST PLAINS

CITY           SKY/WX    TMP DP  RH WIND       PRES   REMARKS
LAS VEGAS      FAIR      64  43  46 SE15G23   30.10F
RATON          PTSUNNY   63  38  39 E12       30.07F
CLAYTON        FAIR      67  44  43 N17G23    30.06F

$$
NMZ532>537-222300-
EASTCENTRAL PLAINS

CITY           SKY/WX    TMP DP  RH WIND       PRES   REMARKS
SANTA ROSA     FAIR      67  48  51 E18       30.02F
TUCUMCARI      FAIR      71  49  45 E8        30.01F
CANNON AFB     PTSUNNY   66  54  65 N16       30.02S THUNDER
CLOVIS AIRPORT CLOUDY    66  48  52 N20       30.01F

$$
NMZ028-029-538-222300-
SOUTHEAST PLAINS

CITY           SKY/WX    TMP DP  RH WIND       PRES   REMARKS
ROSWELL        FAIR      72  52  49 E6        29.94F
ARTESIA        FAIR      77  55  47 SE10G17   29.93F
CARLSBAD       NOT AVBL


$$



USA.gov is the U.S. government's official web portal to all federal, state and local government web resources and services.